星链-35198(STARLINK-35198)

导读

STARLINK-35198是美国太空探索技术公司(SpaceX)“星链”项目的卫星,于2025年9月19日发射,归属“星链”低轨互联网星座,运营商与制造商均为美国太空探索技术公司。该卫星运行于近地轨道,轨道倾角约53度,旨在为全球提供高速卫星互联网接入服务,是“星链”星座组网建设的重要组成部分。

Basic Information
目录编号:
65672
目录名称:
STARLINK-35198
国际标识:
2025-211W
轨道中心:
EARTH
卫星名称:
星链-35198
卫星全名:
星链-35198(STARLINK-35198)
卫星状态:
在轨 (已飞行350 天)
发射日期:
2025-09-19 UTC
国别 :
美国 (US)
星等 :
--
Orbit Information
数据来源 国际轨道数据 AOE轨道数据
星历时间 2026-09-04T00:07:14+0800
14小时前
查看轨道信息
2026-09-03T23:00:00+0800
15小时前
查看轨道信息
半长轴 6843.61km 6843.6km
偏心率 0.0001093 0.0001155
轨道倾角 97.282° 97.286°
近地点辐角 110.969° 110.152°
升交点赤经 287.137° 287.091°
平近点角 249.167° 352.416°
近地点 464.724km 464.672km
远地点 466.222km 466.254km
周期 93.905分钟 93.905分钟
每日圈数 15.334686 15.334721
Detailed Information
固有亮度:
5
最大亮度:
2.5
卫星平台:
Starlink V1.0
覆盖范围:
全球
运营商:
太空探索技术公司
运营商所在国:
美国
制造商(研发单位):
太空探索技术公司
制造商所在国:
美国
使用方式:
暂无
Satellite Introduction
Starlink 计划是 SpaceX 推出的全球卫星互联网项目,通过发射低轨道卫星,为全球尤其是偏远地区提供高速、低延迟的互联网服务。自 2019 年起,Starlink 已部署数千颗卫星,旨在缩小全球数字鸿沟,推动互联网普及。该项目还为军事、航空等行业提供通信支持,带来广泛经济效益。
2D Orbit Map
3D Orbit Map
Orbit Altitude Analysis Chart
Orbit Inclination Analysis Chart
Orbit Comprehensive Analysis Chart
View Comprehensive Chart